Meeandah, Australia

7:57 PM AEST on February 22, 2018 (GMT +1000)
Meeandah

Weather History for 94578 - November, 2013

Change the Weather History Date:

Sunday, November 24, 2013

  Actual Average Record
Temperature  
Mean Temperature 76 °F -  
Max Temperature 84 °F 83 °F - ()
Min Temperature 68 °F 67 °F - ()
Cooling Degree Days 11    
Growing Degree Days 26 (Base 50)    
Moisture  
Dew Point 70 °F    
Average Humidity 84    
Maximum Humidity 100    
Minimum Humidity 63    
Precipitation  
Precipitation 0.39 in 0.17 in - ()
Sea Level Pressure  
Sea Level Pressure 29.67 in    
Wind  
Wind Speed 7 mph ()    
Max Wind Speed 21 mph    
Max Gust Speed 31 mph    
Visibility 6.9 miles    
Events Fog , Rain , Thunderstorm    
T = Trace of Precipitation, MM = Missing Value Source: Averaged Metar Reports

Daily Weather History Graph

Daily Weather History Graph

Search for Another Location

Airport or City:

Trip Planner

Search our weather history database for the weather conditions in past years. The results will help you decide how hot, cold, wet, or windy it might be!

Date:

Astronomy

Nov. 24, 2013 Rise Set
Actual Time 4:45 AM AEST 6:23 PM AEST
Civil Twilight 4:19 AM AEST 6:49 PM AEST
Nautical Twilight 3:48 AM AEST 7:19 PM AEST
Astronomical Twilight 3:16 AM AEST 7:52 PM AEST
Moon 11:12 PM AEST (11/24) 10:00 AM AEST (11/24)
Length of Visible Light 14h 29m
Length of Day
13h 37m
Waning Gibbous, 66% of the Moon is Illuminated
Nov 24
Waning Gibbous
Nov 26
Last Quarter
Dec 3
New
Dec 10
First Quarter
Dec 17
Full

Hourly Weather History & Observations

Time (AEST) Temp. Heat Index Dew Point Humidity Pressure Visibility Wind Dir Wind Speed Gust Speed Precip Events Conditions
12:00 AM 69 °F - 67 °F 93% 29.74 in 9 mi ESE 2.3 mph - -   Partly Cloudy
12:00 AM 69.8 °F - 68.0 °F 94% 29.71 in 6.2 mi ESE 2.3 mph - N/A   Mostly Cloudy
12:30 AM 69.8 °F - 68.0 °F 94% 29.71 in 6.2 mi South 3.5 mph - N/A   Overcast
1:00 AM 69 °F - 67 °F 92% 29.72 in - South 4.6 mph - -  
1:00 AM 69.8 °F - 68.0 °F 94% 29.71 in 6.2 mi South 4.6 mph - N/A   Mostly Cloudy
1:30 AM 69.8 °F - 68.0 °F 94% 29.71 in 6.2 mi SSE 3.5 mph - N/A   Mostly Cloudy
2:00 AM 69.8 °F - 68.0 °F 94% 29.68 in 6.2 mi South 2.3 mph - N/A   Mostly Cloudy
2:30 AM 69.8 °F - 68.0 °F 94% 29.68 in 6.2 mi West 4.6 mph - N/A   Mostly Cloudy
3:00 AM 69 °F - 68 °F 96% 29.70 in 9 mi SSW 5.8 mph - - Rain Light Rain Showers
3:00 AM 69.8 °F - 68.0 °F 94% 29.68 in 6.2 mi SSW 5.8 mph - N/A Rain Light Rain Showers
3:30 AM 69.8 °F - 68.0 °F 94% 29.71 in 6.2 mi SSW 9.2 mph - N/A   Mostly Cloudy
4:00 AM 69 °F - 68 °F 94% 29.72 in - SSW 6.9 mph - -  
4:00 AM 68.0 °F - 68.0 °F 100% 29.71 in 5.6 mi SSW 6.9 mph - N/A Rain Light Rain Showers
4:30 AM 68.0 °F - 68.0 °F 100% 29.71 in 6.2 mi South 1.2 mph - N/A   Mostly Cloudy
5:00 AM 68.0 °F - 68.0 °F 100% 29.74 in 6.2 mi NE 4.6 mph - N/A   Mostly Cloudy
5:30 AM 69.8 °F - 68.0 °F 94% 29.74 in 6.2 mi Calm Calm - N/A   Mostly Cloudy
6:00 AM 70 °F - 68 °F 92% 29.75 in 6 mi Calm Calm - - Fog Light Fog
6:00 AM 69.8 °F - 68.0 °F 94% 29.74 in 6.2 mi Calm Calm - N/A   Mostly Cloudy
6:30 AM 71.6 °F - 68.0 °F 88% 29.74 in 6.2 mi West 4.6 mph - N/A   Partly Cloudy
7:00 AM 73 °F - 69 °F 85% 29.75 in - NNW 3.5 mph - -  
7:00 AM 73.4 °F - 69.8 °F 88% 29.74 in 6.2 mi NNW 3.5 mph - N/A   Scattered Clouds
7:30 AM 75.2 °F - 69.8 °F 83% 29.74 in 6.2 mi North 6.9 mph - N/A   Scattered Clouds
8:00 AM 75.2 °F - 69.8 °F 83% 29.74 in 6.2 mi NNW 8.1 mph - N/A   Scattered Clouds
8:30 AM 77.0 °F - 69.8 °F 78% 29.74 in 6.2 mi North 8.1 mph - N/A   Mostly Cloudy
9:00 AM 78 °F - 71 °F 74% 29.74 in 19 mi North 9.2 mph - -   Partly Cloudy
9:00 AM 78.8 °F - 71.6 °F 78% 29.74 in 6.2 mi North 9.2 mph - N/A   Mostly Cloudy
9:30 AM 78.8 °F - 71.6 °F 78% 29.71 in 6.2 mi North 9.2 mph - N/A   Mostly Cloudy
10:00 AM 79 °F - 70 °F 67% 29.72 in - North 11.5 mph - -  
10:00 AM 78.8 °F - 69.8 °F 74% 29.71 in 6.2 mi North 11.5 mph - N/A   Mostly Cloudy
10:30 AM 80.6 °F 84.6 °F 71.6 °F 74% 29.71 in 6.2 mi NNE 12.7 mph - N/A   Mostly Cloudy
11:00 AM 80.6 °F 84.6 °F 71.6 °F 74% 29.68 in 6.2 mi North 13.8 mph - N/A   Mostly Cloudy
11:30 AM 80.6 °F 84.6 °F 71.6 °F 74% 29.68 in - NNE 12.7 mph - N/A   Clear
12:00 PM 81 °F - 72 °F 69% 29.68 in 12 mi NNE 16.1 mph - -   Partly Cloudy
12:00 PM 80.6 °F 85.4 °F 73.4 °F 79% 29.68 in - NNE 16.1 mph - N/A   Clear
12:30 PM 82.4 °F 88.2 °F 73.4 °F 74% 29.65 in 6.2 mi NNE 17.3 mph - N/A   Scattered Clouds
1:00 PM 83 °F - 74 °F 66% 29.65 in - NNE 18.4 mph - -  
1:00 PM 82.4 °F 88.2 °F 73.4 °F 74% 29.62 in - NNE 18.4 mph - N/A   Clear
1:30 PM 82.4 °F 89.5 °F 75.2 °F 79% 29.62 in 6.2 mi NNE 18.4 mph - N/A   Partly Cloudy
2:00 PM 84.2 °F 90.9 °F 73.4 °F 70% 29.59 in 6.2 mi NNE 18.4 mph - N/A Thunderstorm Partly Cloudy
2:19 PM 84.2 °F 90.9 °F 73.4 °F 70% 29.56 in 6.2 mi NNE 20.7 mph - N/A Rain , Thunderstorm Light Thunderstorms and Rain
2:30 PM 73.4 °F - 68.0 °F 83% 29.62 in 0.3 mi NNE 20.7 mph - N/A Rain , Thunderstorm Heavy Thunderstorms and Rain
3:00 PM 75 °F - 70 °F 81% 29.61 in 19 mi East 5.8 mph - - Thunderstorm Light Thunderstorm
3:00 PM 75.2 °F - 69.8 °F 83% 29.59 in 6.2 mi East 5.8 mph - N/A Thunderstorm Scattered Clouds
3:30 PM 78.8 °F - 68.0 °F 69% 29.59 in - ENE 13.8 mph - N/A   Clear
4:00 PM 77 °F - 67 °F 63% 29.60 in - ENE 10.4 mph - -  
4:00 PM 77.0 °F - 66.2 °F 69% 29.59 in 6.2 mi ENE 10.4 mph - N/A Thunderstorm Scattered Clouds
4:10 PM 77.0 °F - 68.0 °F 74% 29.59 in 6.2 mi NE 11.5 mph - N/A Rain , Thunderstorm Light Thunderstorms and Rain
4:30 PM 75.2 °F - 69.8 °F 83% 29.56 in 6.2 mi NE 9.2 mph - N/A Rain , Thunderstorm Light Thunderstorms and Rain
4:40 PM 73.4 °F - 69.8 °F 88% 29.59 in 3.1 mi North 19.6 mph 31.1 mph N/A Rain , Thunderstorm Thunderstorms and Rain
5:00 PM 73.4 °F - 68.0 °F 83% 29.59 in 6.2 mi East 9.2 mph - N/A Rain , Thunderstorm Light Thunderstorms and Rain
5:30 PM 75.2 °F - 69.8 °F 83% 29.59 in 6.2 mi NE 11.5 mph - N/A   Partly Cloudy
6:00 PM 73 °F - 69 °F 84% 29.62 in 12 mi NNE 11.5 mph - - Thunderstorm Light Thunderstorm
6:00 PM 73.4 °F - 69.8 °F 88% 29.59 in - NNE 11.5 mph - N/A   Clear
6:30 PM 75.2 °F - 69.8 °F 83% 29.62 in - NNE 8.1 mph - N/A   Clear
7:00 PM 76 °F - 71 °F 78% 29.63 in - North 15.0 mph - -  
7:00 PM 75.2 °F - 69.8 °F 83% 29.62 in - North 15.0 mph - N/A   Clear
7:30 PM 77.0 °F - 71.6 °F 83% 29.62 in - NNE 15.0 mph - N/A   Clear
8:00 PM 75.2 °F - 71.6 °F 89% 29.62 in 6.2 mi North 15.0 mph - N/A   Partly Cloudy
8:30 PM 75.2 °F - 71.6 °F 89% 29.65 in 6.2 mi NNE 15.0 mph - N/A   Partly Cloudy
9:00 PM 76 °F - 71 °F 80% 29.66 in 7 mi North 11.5 mph - -   Scattered Clouds
9:00 PM 75.2 °F - 71.6 °F 89% 29.65 in 6.2 mi North 11.5 mph - N/A   Mostly Cloudy
9:30 PM 75.2 °F - 71.6 °F 89% 29.65 in - NW 9.2 mph - N/A   Clear
10:00 PM 75 °F - 72 °F 87% 29.67 in - North 13.8 mph - -  
10:00 PM 75.2 °F - 71.6 °F 89% 29.65 in - North 13.8 mph - N/A   Clear
10:30 PM 75.2 °F - 69.8 °F 83% 29.65 in 6.2 mi North 12.7 mph - N/A   Partly Cloudy
11:00 PM 73.4 °F - 69.8 °F 88% 29.65 in 6.2 mi North 11.5 mph - N/A   Scattered Clouds
11:15 PM 73.4 °F - 69.8 °F 88% 29.65 in 6.2 mi West 5.8 mph - N/A   Scattered Clouds
11:30 PM 73.4 °F - 69.8 °F 88% 29.65 in 6.2 mi WNW 4.6 mph - N/A   Mostly Cloudy